Погода в Рабауле

Папуа-Новая Гвинея     4°11′48″S   152°10′25″E
темп.,
°C
ветер,
м/с
пор.,
м/с
влажн.,
%
обл.,
%
осадки,
мм/ч
давл.,
гПа
погр.,
м
26 февраля, пт
пт2601:00+27зсз3577100 0.9 1005535
04:00+27зсз347797 2.3 1005507
07:00+27зюз228049 1.0 1007262
10:00+28сз127272 1.1 1007336
13:00+29ссз567171 0.7 1005614
16:00+29сз567449 3.9 1004591
19:00+28сз457486 3.6 1007521
22:00+28ссз567793 8.1 1009584
27 февраля, сб
сб2701:00+27ссз347699 3.8 1007497
04:00+28сз347496 5.6 1006628
07:00+28ссз447491 0.7 1008696
10:00+28ссз457495 0.7 1008747
13:00+28сз457299 0.0 1006539
16:00+29сз5572100 0.3 1005563
19:00+28сз4575100 0.0 1007655
22:00+28сз4575100 2.3 1008603
28 февраля, вс
вс2801:00+27зсз3478100 1.6 1007412
04:00+27зсз2479100 2.4 1006431
07:00+26з3380100 3.3 1008210
10:00+28сз4671100 3.9 1009589
13:00+29сз7871100 0.1 1007799
16:00+29зсз6770100 0.4 1006705
19:00+28сз5672100 0.0 1007730
22:00+28зсз4675100 0.0 1008774
1 марта, пн
пн101:00+27з3477100 0.1 1007433
04:00+27з2376100 0.1 1006315
07:00+28зсз4674100 0.2 1007538
10:00+29сз4671100 0.3 1008671
13:00+28сз787469 0.8 1006685
16:00+28сз897449 1.1 1005802
19:00+28сз7875100 1.0 1007684
22:00+28сз6776100 1.9 1008777
2 марта, вт
вт201:00+28сз787794 0.2 1006901
04:00+28сз577697 0.4 1005886
07:00+28ссз5777100 0.2 1007891
10:00+28ссз667598 0.4 1007925
13:00+28ссз777694 0.1 1005766
16:00+29ссз667497 0.2 1004758
19:00+28ссз6775100 0.6 1006752
22:00+29сз6874100 0.7 1008944